Wind_Speed
41 42 43 43 43 44 45 45 46 46 47 47 47 47 47 47 47 47 47 47 46 45 44 43 43 42 42 42 42 43 44 43 43 43 43 42 43 43 43 44 44 44
46 47 47 46 46 47 47 47 47 47 47 48 48 47 47 47 47 47 47 47 46 45 44 43 43 42 42 42 44 44 45 44 44 44 44 44 44 44 45 45 45 45
51 50 49 48 48 48 48 47 47 48 48 48 48 48 48 48 48 48 47 47 47 46 45 44 43 43 44 44 46 46 46 46 46 46 46 46 46 47 47 47 46 46
48 47 47 47 47 47 47 47 47 48 48 49 49 49 49 49 48 48 48 48 47 46 46 45 45 45 46 47 48 48 48 48 48 49 49 49 49 49 49 48 48 47
44 44 44 45 45 46 47 47 47 48 49 49 50 49 49 49 49 48 48 48 48 47 46 46 46 47 47 48 49 49 49 49 50 50 50 50 50 50 50 50 50 49
42 42 42 44 45 46 47 48 48 49 50 50 51 50 50 49 49 49 49 49 48 47 47 47 48 48 49 49 50 50 50 50 50 50 51 51 51 50 50 50 50 50
39 40 42 44 46 47 48 49 50 50 51 51 52 51 51 51 50 50 49 49 49 49 49 49 49 50 51 51 51 51 52 52 52 52 52 52 51 51 51 51 51 51
39 41 43 45 47 49 50 51 52 52 52 52 52 52 52 51 51 51 50 50 50 50 51 51 51 52 53 53 53 53 54 54 54 54 53 53 53 53 54 54 53 53
43 45 47 48 49 50 51 52 52 53 53 52 52 52 52 52 52 52 52 52 52 52 52 53 53 54 54 54 55 55 55 55 55 55 55 55 55 55 56 56 56 56
49 51 52 52 52 52 53 53 53 53 53 52 52 52 53 53 53 53 53 53 53 54 54 54 55 56 56 56 56 57 57 57 57 57 57 57 57 57 58 58 58 59
52 53 53 53 53 54 54 54 53 54 54 54 54 54 54 54 54 54 55 55 55 56 56 56 57 57 57 58 58 58 58 58 59 59 59 59 59 60 60 61 61 61
51 51 51 51 52 52 53 53 53 54 55 56 57 57 56 56 56 57 57 57 57 57 58 58 58 58 59 59 59 59 59 60 60 61 61 61 61 62 63 63 63 62
51 52 52 52 53 53 53 53 54 55 56 57 58 58 58 58 58 58 58 58 58 58 58 58 59 59 59 60 60 60 61 62 62 62 63 63 64 65 65 64 63 63
54 55 56 57 57 57 56 55 55 56 57 57 58 58 58 58 58 59 58 58 58 58 58 58 59 60 61 61 62 62 63 63 64 64 65 66 66 66 65 65 65 65
57 58 59 60 60 59 58 58 58 58 58 58 57 57 58 58 58 58 58 58 58 59 59 59 60 61 62 63 64 64 64 65 65 66 67 67 67 67 67 67 67 67
59 59 60 60 60 59 59 58 58 59 59 59 59 59 59 59 59 58 58 59 59 59 60 61 62 63 63 64 65 65 66 66 67 68 68 69 69 70 71 70 70 69
60 60 60 60 60 59 58 58 58 59 60 60 60 61 61 61 61 60 60 60 60 61 62 63 63 64 65 65 66 66 67 68 68 69 70 71 72 73 73 74 73 73
60 60 60 59 59 58 58 58 59 59 60 60 61 61 62 62 62 62 63 63 63 64 64 65 65 65 66 66 67 67 68 69 70 71 73 74 74 75 75 76 77 77
60 60 59 59 59 59 59 59 59 60 60 60 60 60 61 62 62 63 63 64 64 65 65 66 66 66 67 67 68 69 70 71 72 74 75 75 76 77 77 78 79 79
60 61 61 61 61 61 60 59 58 58 57 58 58 58 59 60 60 61 62 63 64 65 65 66 67 67 68 69 70 71 72 74 75 75 76 77 77 78 79 80 80 80
59 61 62 63 64 62 60 58 57 56 56 57 57 57 58 58 59 60 60 61 63 64 65 67 68 69 70 71 72 73 74 75 76 77 78 79 79 80 80 80 79 78
59 61 63 65 65 62 60 58 57 56 57 58 58 59 59 59 59 60 61 62 63 63 65 66 67 68 70 71 72 74 75 76 77 79 80 80 81 81 80 79 78 77
59 61 64 65 65 63 62 61 60 60 60 61 61 61 60 60 61 62 62 63 63 64 65 65 66 68 70 72 73 75 77 78 80 81 82 82 81 80 79 78 78 77
60 62 63 64 65 64 64 64 63 63 63 64 64 63 63 63 64 64 64 65 65 65 66 67 68 70 72 74 75 77 79 81 82 83 82 82 81 80 80 81 80 79
60 61 62 64 64 65 65 65 65 65 66 66 66 66 65 66 66 66 66 66 66 67 67 69 70 72 74 76 78 80 81 82 82 82 82 81 82 83 84 84 82 79
60 61 62 63 64 64 65 65 66 66 67 68 68 67 67 67 67 67 67 67 67 68 69 70 72 74 76 78 80 81 82 82 82 81 82 83 85 86 85 83 80 78
Wind_Direction
279 281 282 283 283 284 284 285 286 286 286 285 285 285 286 287 287 287 287 288 288 287 287 287 287 288 288 288 288 289 289 289 289 288 286 285 284 284 284 285 285 285
279 281 282 282 283 284 285 286 286 286 286 286 286 286 286 286 286 286 287 287 287 287 287 287 288 288 288 288 288 290 289 289 288 287 285 285 285 285 285 286 286 286
279 280 281 281 282 284 285 285 286 286 286 286 286 286 286 285 286 286 286 286 286 287 287 287 287 287 287 287 288 289 288 287 286 285 285 285 286 287 287 288 287 287
279 280 281 282 283 284 284 284 285 285 285 285 286 286 286 286 286 286 286 286 286 286 286 286 286 287 286 286 287 287 286 285 285 285 285 286 287 288 289 289 289 288
281 282 283 283 283 284 284 284 284 284 284 285 285 286 286 286 286 286 286 286 286 286 286 287 287 287 286 286 286 286 286 285 285 286 286 287 288 288 289 289 289 289
281 282 283 283 284 284 283 283 283 284 284 285 285 286 286 285 285 285 285 285 286 286 287 287 287 286 286 286 286 286 286 286 286 287 287 288 289 289 289 289 289 289
281 283 284 284 284 283 283 283 283 284 284 285 285 286 286 285 285 285 285 286 286 286 286 286 286 286 286 286 286 286 287 287 287 288 288 289 289 289 290 289 289 289
281 283 284 284 284 282 282 282 283 283 284 285 285 285 285 285 285 285 286 286 286 286 286 287 286 286 286 287 287 287 287 287 288 288 289 289 290 290 290 291 291 290
281 282 283 284 284 283 282 282 282 283 283 284 284 284 285 285 285 286 286 286 286 286 286 286 286 286 286 287 287 287 288 288 288 289 289 290 290 291 291 291 291 291
281 282 283 283 283 283 283 283 282 282 282 282 283 283 283 284 284 285 285 285 285 285 285 285 286 286 287 287 287 288 288 289 289 290 290 291 291 292 292 292 292 291
280 281 282 283 283 283 283 283 282 282 281 281 281 281 282 282 283 284 284 284 284 285 285 286 286 287 287 287 287 288 289 289 290 290 291 292 292 292 292 292 292 292
280 281 282 283 283 284 284 283 282 281 280 280 280 280 281 282 283 283 284 284 285 285 286 286 286 286 287 287 288 288 289 289 290 291 292 292 292 292 292 293 293 292
281 282 283 284 285 286 286 285 284 282 281 281 281 281 282 282 283 283 284 285 285 285 286 286 286 286 287 287 288 288 289 290 291 291 292 292 292 292 292 292 292 292
281 282 283 284 285 286 286 285 285 284 284 284 284 283 283 283 284 284 284 285 285 285 285 286 286 286 287 287 288 289 290 290 291 291 291 291 292 292 292 293 293 293
280 281 282 283 284 285 285 285 285 285 286 286 286 285 285 285 284 285 284 284 285 285 285 286 286 287 288 289 290 290 291 291 291 291 292 292 293 293 293 293 293 293
279 281 282 283 284 285 286 286 286 287 287 287 287 286 286 285 285 285 285 285 285 285 286 286 287 288 289 290 291 291 291 291 292 292 292 293 293 293 294 294 294 294
279 281 282 284 285 286 287 287 288 288 288 288 287 287 286 286 286 285 285 286 286 286 287 288 289 289 290 290 291 291 291 292 292 292 293 293 294 294 295 295 295 295
280 282 283 285 286 287 288 289 289 289 289 289 288 288 288 287 286 286 286 287 287 288 288 289 289 290 290 290 290 291 291 291 292 292 293 294 294 295 295 296 296 296
281 283 284 285 286 287 288 290 290 290 290 290 289 289 288 288 288 288 288 288 289 289 289 289 289 289 290 290 290 290 291 291 292 293 293 294 295 295 296 296 296 296
283 284 285 286 287 288 289 290 291 292 292 291 290 290 289 290 290 290 290 290 290 290 290 290 289 289 289 289 290 290 291 292 293 294 294 295 295 295 295 295 295 295
283 285 286 286 287 288 290 291 292 293 292 291 291 291 292 292 293 293 293 293 292 292 291 290 290 289 289 290 290 291 292 293 294 295 295 295 295 295 295 295 295 294
283 285 285 286 287 289 291 291 292 292 291 291 292 293 293 294 294 295 294 294 293 293 292 291 291 291 291 292 293 294 294 295 295 295 296 295 296 296 296 295 295 294
282 283 285 286 288 290 291 291 292 292 292 292 293 293 294 294 295 295 295 294 294 293 293 293 294 294 294 295 296 296 296 296 296 296 297 297 297 297 297 296 295 294
281 283 284 286 287 289 290 291 292 292 293 293 294 294 295 295 295 295 295 295 295 295 295 296 296 296 297 297 297 297 297 297 297 298 298 299 299 299 299 298 297 297
281 283 284 285 286 287 289 290 291 292 293 294 295 296 297 297 297 296 296 296 296 297 297 297 297 297 297 297 297 297 298 298 299 299 300 301 301 301 301 300 300 299
281 282 283 284 285 286 288 289 291 292 292 293 295 296 297 297 297 296 296 296 297 296 297 296 296 297 297 297 298 298 299 299 300 301 302 302 302 302 302 302 301 301
Height
10689 10689 10689 10689 10689 10689 10688 10688 10687 10687 10686 10685 10684 10683 10682 10681 10681 10680 10678 10677 10677 10676 10675 10674 10673 10672 10671 10670 10669 10668 10667 10666 10665 10664 10663 10662 10660 10659 10658 10657 10656 10655
10684 10684 10684 10684 10684 10683 10683 10682 10682 10681 10680 10679 10679 10678 10677 10676 10675 10674 10673 10672 10671 10671 10670 10669 10668 10667 10666 10665 10664 10662 10661 10660 10659 10658 10657 10656 10654 10653 10652 10651 10650 10649
10679 10679 10679 10678 10678 10678 10677 10677 10676 10675 10674 10673 10673 10672 10672 10671 10670 10669 10668 10667 10666 10666 10665 10664 10663 10662 10661 10659 10658 10657 10656 10654 10653 10652 10651 10650 10648 10647 10645 10644 10643 10643
10673 10673 10673 10673 10673 10672 10672 10671 10670 10669 10668 10668 10667 10666 10666 10665 10664 10664 10663 10662 10661 10660 10660 10659 10658 10657 10655 10654 10652 10651 10650 10648 10647 10646 10645 10643 10642 10640 10639 10638 10637 10636
10668 10668 10668 10668 10667 10667 10666 10666 10665 10664 10663 10662 10662 10661 10661 10660 10659 10658 10657 10656 10655 10655 10654 10653 10652 10651 10649 10648 10646 10645 10643 10642 10641 10639 10638 10637 10635 10634 10633 10631 10630 10629
10664 10664 10663 10663 10663 10662 10661 10660 10660 10659 10658 10657 10656 10656 10655 10655 10654 10652 10651 10651 10650 10649 10648 10647 10646 10645 10643 10642 10640 10639 10637 10636 10634 10633 10631 10630 10629 10627 10626 10625 10624 10623
10659 10659 10659 10658 10658 10657 10656 10656 10655 10654 10654 10653 10651 10651 10650 10649 10648 10647 10646 10645 10644 10643 10642 10641 10640 10638 10637 10635 10634 10632 10631 10629 10628 10626 10625 10623 10622 10620 10619 10618 10617 10616
10655 10655 10654 10653 10652 10652 10651 10651 10650 10650 10649 10648 10647 10645 10644 10644 10642 10641 10640 10640 10638 10637 10636 10635 10633 10632 10630 10629 10627 10626 10624 10622 10621 10619 10618 10616 10614 10613 10612 10611 10610 10609
10651 10650 10649 10648 10647 10647 10647 10646 10646 10645 10644 10643 10641 10640 10639 10638 10637 10636 10635 10634 10632 10631 10630 10628 10627 10625 10623 10622 10620 10618 10617 10615 10614 10612 10611 10609 10607 10606 10604 10603 10602 10601
10645 10644 10643 10643 10642 10642 10641 10641 10640 10639 10638 10637 10636 10635 10634 10633 10632 10631 10629 10628 10626 10625 10623 10621 10620 10618 10616 10615 10613 10611 10609 10608 10606 10604 10603 10601 10600 10599 10597 10595 10594 10593
10639 10638 10638 10638 10637 10636 10636 10635 10634 10633 10632 10631 10630 10629 10628 10627 10626 10625 10623 10621 10620 10618 10616 10614 10612 10611 10609 10607 10605 10604 10602 10600 10598 10596 10595 10594 10592 10590 10589 10587 10586 10584
10633 10633 10633 10632 10631 10631 10631 10630 10629 10627 10626 10625 10624 10623 10622 10621 10620 10618 10617 10615 10613 10611 10609 10607 10605 10603 10602 10600 10598 10596 10594 10592 10591 10589 10587 10586 10584 10582 10581 10579 10577 10576
10628 10628 10628 10627 10626 10626 10625 10624 10623 10621 10619 10618 10617 10616 10615 10614 10613 10611 10610 10608 10606 10604 10602 10600 10598 10596 10594 10593 10591 10589 10587 10585 10583 10581 10579 10578 10576 10574 10572 10571 10569 10567
10623 10623 10622 10621 10621 10621 10620 10618 10617 10615 10613 10612 10611 10610 10608 10607 10605 10604 10603 10601 10599 10597 10595 10593 10590 10588 10587 10585 10584 10582 10580 10578 10575 10573 10571 10569 10567 10566 10564 10562 10560 10558
10618 10617 10616 10616 10615 10614 10613 10612 10610 10608 10607 10605 10604 10603 10601 10600 10598 10597 10595 10593 10592 10590 10588 10586 10583 10581 10579 10577 10575 10573 10572 10570 10567 10565 10562 10560 10558 10556 10554 10553 10551 10548
10612 10611 10610 10609 10609 10608 10607 10605 10604 10602 10600 10599 10597 10596 10594 10593 10591 10590 10588 10586 10584 10582 10580 10578 10576 10574 10572 10569 10567 10565 10563 10561 10558 10556 10553 10551 10548 10545 10543 10541 10539 10537
10606 10605 10604 10603 10602 10601 10600 10599 10597 10596 10594 10592 10591 10589 10587 10586 10584 10582 10580 10578 10577 10575 10573 10571 10569 10566 10564 10562 10559 10557 10554 10552 10549 10546 10544 10541 10538 10536 10532 10529 10527 10525
10600 10599 10598 10597 10596 10595 10594 10593 10591 10589 10588 10586 10584 10582 10580 10578 10576 10574 10573 10571 10569 10567 10565 10563 10561 10558 10556 10553 10551 10548 10545 10543 10540 10537 10534 10531 10528 10525 10522 10519 10516 10513
10594 10593 10592 10590 10589 10589 10588 10587 10585 10583 10581 10579 10577 10575 10573 10571 10569 10567 10565 10563 10561 10559 10557 10555 10553 10550 10547 10545 10542 10539 10536 10533 10531 10527 10524 10521 10518 10515 10512 10509 10505 10502
10588 10586 10585 10584 10583 10583 10582 10581 10579 10577 10575 10572 10570 10568 10566 10564 10562 10560 10558 10556 10553 10551 10549 10546 10544 10541 10538 10536 10533 10530 10527 10524 10521 10518 10514 10511 10508 10505 10502 10498 10495 10492
10582 10580 10579 10577 10577 10576 10576 10575 10573 10571 10568 10566 10563 10562 10559 10557 10555 10553 10550 10548 10545 10543 10540 10538 10535 10532 10529 10526 10523 10520 10517 10514 10511 10507 10504 10500 10497 10494 10491 10488 10485 10481
10577 10575 10573 10571 10570 10570 10569 10568 10566 10564 10562 10559 10557 10555 10553 10551 10548 10546 10543 10540 10538 10535 10532 10529 10526 10523 10520 10517 10514 10510 10507 10503 10500 10496 10493 10489 10485 10482 10479 10476 10473 10470
10572 10570 10567 10565 10564 10563 10562 10560 10559 10557 10555 10553 10551 10549 10546 10544 10541 10538 10535 10532 10530 10527 10524 10521 10518 10514 10511 10507 10504 10500 10496 10492 10489 10484 10481 10477 10473 10469 10466 10462 10459 10456
10566 10564 10562 10560 10558 10556 10555 10553 10551 10550 10548 10546 10544 10541 10539 10537 10534 10531 10527 10524 10521 10518 10515 10512 10509 10505 10502 10498 10494 10490 10486 10482 10478 10473 10469 10464 10460 10456 10452 10448 10444 10441
10560 10559 10557 10554 10552 10550 10548 10546 10544 10542 10540 10538 10536 10534 10531 10529 10526 10523 10519 10516 10513 10510 10507 10504 10500 10497 10493 10489 10485 10481 10476 10472 10467 10462 10458 10453 10448 10443 10438 10433 10429 10426
10554 10552 10550 10548 10545 10543 10542 10540 10537 10535 10533 10531 10528 10526 10524 10521 10518 10515 10512 10509 10506 10503 10500 10496 10493 10489 10485 10480 10476 10471 10466 10462 10457 10452 10448 10442 10437 10432 10426 10421 10416 10412